User: anonymous   Login
Location: Caltech
(34.1382°N, 118.1253°W)
Time: 01:23:18
(UTC-08:00)
Language:

Iridium 94 - Orbit

View from above orbital plane
View from above orbital plane
View from above satellite
View from above satellite

Ground track
Ground track

The orbit data is extracted from the following two-line orbital elements,

1 27374U 02005C   17057.61850630  .00000127  00000-0  38270-4 0  9993
2 27374  86.3960 301.9514 0002822  78.2993 300.5689 14.34217409800107
Epoch (UTC): 26 February 2017 14:50:38
Eccentricity: 0.0002822
inclination: 86.3960°
perigee height: 775 km
apogee height: 779 km
right ascension of ascending node: 301.9514°
argument of perigee: 78.2993°
revolutions per day: 14.34217409
mean anomaly at epoch: 300.5689°
orbit number at epoch: 80010

The dashed part of the orbit path shows where the satellite is in the earth's shadow,  

DLR